QIANFAN-17 (60395 NORAD) Tracking and Keplerian Element Data

This shows tracking and keplerian element data for the satellite.

Feedback or suggestion? Click here.




ElementValue
Catalog60395
NameQIANFAN-17
Epoch Orbit963
Epoch Day286.84645677
Epoch Year2024
RAAN343.4179
Inclination88.9943
Eccentricity0.0015532
Argument of Perigee15.1401
Mean Anonmoly345.0252
Mean Motion14.23651096
Decay Rate1.92E-05
L11 60395U 24140S 24286.84645677 .00001920 00000+0 83522-3 0 9997
L22 60395 88.9943 343.4179 0015532 15.1401 345.0252 14.23651096 9631



Live tracking and technical data element details for QIANFAN-17 (NORAD 60395). QIANFAN-17 can be tracked NOW for your location showing map with azimuth and elevation plus other details from your city location.







IsCatalogInMostPopularTable: catalog: 60395, numindb: 6
Update: records affected: 1



GetName: 60395 QIANFAN-17

Hit Count: updated at: Wed, 04 Dec 2024 18:22:48 GMT